Year,Month,Day,Hour,Minute,Value (Times are PST for temperature in C)
2014,09,13,00,00,11.90
2014,09,13,00,01,11.90
2014,09,13,00,02,11.90
2014,09,13,00,03,11.80
2014,09,13,00,04,11.80
2014,09,13,00,05,11.80
2014,09,13,00,06,11.80
2014,09,13,00,07,11.80
2014,09,13,00,08,11.80
2014,09,13,00,09,11.80
2014,09,13,00,10,11.70
2014,09,13,00,11,11.70
2014,09,13,00,12,11.70
2014,09,13,00,13,11.70
2014,09,13,00,14,11.70
2014,09,13,00,15,11.60
2014,09,13,00,16,11.60
2014,09,13,00,17,11.60
2014,09,13,00,18,11.60
2014,09,13,00,19,11.50
2014,09,13,00,20,11.50
2014,09,13,00,21,11.50
2014,09,13,00,22,11.50
2014,09,13,00,23,11.40
2014,09,13,00,24,11.40
2014,09,13,00,25,11.40
2014,09,13,00,26,11.40
2014,09,13,00,27,11.30
2014,09,13,00,28,11.30
2014,09,13,00,29,11.30
2014,09,13,00,30,11.20
2014,09,13,00,31,11.20
2014,09,13,00,32,11.20
2014,09,13,00,33,11.20
2014,09,13,00,34,11.10
2014,09,13,00,35,11.10
2014,09,13,00,36,11.10
2014,09,13,00,37,11.00
2014,09,13,00,38,11.00
2014,09,13,00,39,11.00
2014,09,13,00,40,11.00
2014,09,13,00,41,10.90
2014,09,13,00,42,10.90
2014,09,13,00,43,10.90
2014,09,13,00,44,10.90
2014,09,13,00,45,10.90
2014,09,13,00,46,10.80
2014,09,13,00,47,10.80
2014,09,13,00,48,10.80
2014,09,13,00,49,10.80
2014,09,13,00,50,10.80
2014,09,13,00,51,10.80
2014,09,13,00,52,10.80
2014,09,13,00,53,10.80
2014,09,13,00,54,10.80
2014,09,13,00,55,10.80
2014,09,13,00,56,10.80
2014,09,13,00,57,10.70
2014,09,13,00,58,10.70
2014,09,13,00,59,10.70
2014,09,13,01,00,10.70
2014,09,13,01,01,10.70
2014,09,13,01,02,10.60
2014,09,13,01,03,10.60
2014,09,13,01,04,10.60
2014,09,13,01,05,10.60
2014,09,13,01,06,10.60
2014,09,13,01,07,10.60
2014,09,13,01,08,10.60
2014,09,13,01,09,10.50
2014,09,13,01,10,10.50
2014,09,13,01,11,10.50
2014,09,13,01,12,10.50
2014,09,13,01,13,10.50
2014,09,13,01,14,10.50
2014,09,13,01,15,10.50
2014,09,13,01,16,10.50
2014,09,13,01,17,10.50
2014,09,13,01,18,10.40
2014,09,13,01,19,10.40
2014,09,13,01,20,10.40
2014,09,13,01,21,10.40
2014,09,13,01,22,10.40
2014,09,13,01,23,10.30
2014,09,13,01,24,10.30
2014,09,13,01,25,10.30
2014,09,13,01,26,10.30
2014,09,13,01,27,10.20
2014,09,13,01,28,10.20
2014,09,13,01,29,10.20
2014,09,13,01,30,10.20
2014,09,13,01,31,10.10
2014,09,13,01,32,10.10
2014,09,13,01,33,10.10
2014,09,13,01,34,10.00
2014,09,13,01,35,10.00
2014,09,13,01,36,10.00
2014,09,13,01,37,10.00
2014,09,13,01,38,10.00
2014,09,13,01,39,10.00
2014,09,13,01,40,10.00
2014,09,13,01,41,9.90
2014,09,13,01,42,9.90
2014,09,13,01,43,9.90
2014,09,13,01,44,9.90
2014,09,13,01,45,9.90
2014,09,13,01,46,9.90
2014,09,13,01,47,9.90
2014,09,13,01,48,9.90
2014,09,13,01,49,9.80
2014,09,13,01,50,9.80
2014,09,13,01,51,9.80
2014,09,13,01,52,9.80
2014,09,13,01,53,9.80
2014,09,13,01,54,9.80
2014,09,13,01,55,9.80
2014,09,13,01,56,9.80
2014,09,13,01,57,9.80
2014,09,13,01,58,9.80
2014,09,13,01,59,9.80
2014,09,13,02,00,9.80
2014,09,13,02,01,9.80
2014,09,13,02,02,9.80
2014,09,13,02,03,9.80
2014,09,13,02,04,9.80
2014,09,13,02,05,9.80
2014,09,13,02,06,9.80
2014,09,13,02,07,9.80
2014,09,13,02,08,9.80
2014,09,13,02,09,9.80
2014,09,13,02,10,9.80
2014,09,13,02,11,9.80
2014,09,13,02,12,9.90
2014,09,13,02,13,9.90
2014,09,13,02,14,9.90
2014,09,13,02,15,9.90
2014,09,13,02,16,9.90
2014,09,13,02,17,9.90
2014,09,13,02,18,10.00
2014,09,13,02,19,10.00
2014,09,13,02,20,10.00
2014,09,13,02,21,10.00
2014,09,13,02,22,10.00
2014,09,13,02,23,10.00
2014,09,13,02,24,10.00
2014,09,13,02,25,10.10
2014,09,13,02,26,10.10
2014,09,13,02,27,10.10
2014,09,13,02,28,10.10
2014,09,13,02,29,10.10
2014,09,13,02,30,10.10
2014,09,13,02,31,10.20
2014,09,13,02,32,10.20
2014,09,13,02,33,10.20
2014,09,13,02,34,10.20
2014,09,13,02,35,10.20
2014,09,13,02,36,10.20
2014,09,13,02,37,10.20
2014,09,13,02,38,10.20
2014,09,13,02,39,10.20
2014,09,13,02,40,10.20
2014,09,13,02,41,10.20
2014,09,13,02,42,10.20
2014,09,13,02,43,10.20
2014,09,13,02,44,10.20
2014,09,13,02,45,10.20
2014,09,13,02,46,10.10
2014,09,13,02,47,10.10
2014,09,13,02,48,10.10
2014,09,13,02,49,10.10
2014,09,13,02,50,10.10
2014,09,13,02,51,10.10
2014,09,13,02,52,10.10
2014,09,13,02,53,10.10
2014,09,13,02,54,10.10
2014,09,13,02,55,10.00
2014,09,13,02,56,10.00
2014,09,13,02,57,10.00
2014,09,13,02,58,10.00
2014,09,13,02,59,10.00
2014,09,13,03,00,10.00
2014,09,13,03,01,10.00
2014,09,13,03,02,10.00
2014,09,13,03,03,10.00
2014,09,13,03,04,10.00
2014,09,13,03,05,10.00
2014,09,13,03,06,10.00
2014,09,13,03,07,10.00
2014,09,13,03,08,10.00
2014,09,13,03,09,10.00
2014,09,13,03,10,10.00
2014,09,13,03,11,10.00
2014,09,13,03,12,10.00
2014,09,13,03,13,10.00
2014,09,13,03,14,10.00
2014,09,13,03,15,10.00
2014,09,13,03,16,10.00
2014,09,13,03,17,10.00
2014,09,13,03,18,10.00
2014,09,13,03,19,10.00
2014,09,13,03,20,10.00
2014,09,13,03,21,10.00
2014,09,13,03,22,10.00
2014,09,13,03,23,10.00
2014,09,13,03,24,10.00
2014,09,13,03,25,10.00
2014,09,13,03,26,10.00
2014,09,13,03,27,9.90
2014,09,13,03,28,9.90
2014,09,13,03,29,9.90
2014,09,13,03,30,9.90
2014,09,13,03,31,9.90
2014,09,13,03,32,9.90
2014,09,13,03,33,9.90
2014,09,13,03,34,9.90
2014,09,13,03,35,9.80
2014,09,13,03,36,9.80
2014,09,13,03,37,9.80
2014,09,13,03,38,9.80
2014,09,13,03,39,9.80
2014,09,13,03,40,9.80
2014,09,13,03,41,9.80
2014,09,13,03,42,9.80
2014,09,13,03,43,9.80
2014,09,13,03,44,9.80
2014,09,13,03,45,9.80
2014,09,13,03,46,9.80
2014,09,13,03,47,9.70
2014,09,13,03,48,9.70
2014,09,13,03,49,9.80
2014,09,13,03,50,9.70
2014,09,13,03,51,9.70
2014,09,13,03,52,9.70
2014,09,13,03,53,9.70
2014,09,13,03,54,9.70
2014,09,13,03,55,9.70
2014,09,13,03,56,9.70
2014,09,13,03,57,9.70
2014,09,13,03,58,9.70
2014,09,13,03,59,9.70
2014,09,13,04,00,9.70
2014,09,13,04,01,9.70
2014,09,13,04,02,9.70
2014,09,13,04,03,9.70
2014,09,13,04,04,9.70
2014,09,13,04,05,9.70
2014,09,13,04,06,9.70
2014,09,13,04,07,9.70
2014,09,13,04,08,9.70
2014,09,13,04,09,9.70
2014,09,13,04,10,9.70
2014,09,13,04,11,9.70
2014,09,13,04,12,9.70
2014,09,13,04,13,9.70
2014,09,13,04,14,9.70
2014,09,13,04,15,9.70
2014,09,13,04,16,9.70
2014,09,13,04,17,9.70
2014,09,13,04,18,9.70
2014,09,13,04,19,9.70
2014,09,13,04,20,9.70
2014,09,13,04,21,9.70
2014,09,13,04,22,9.70
2014,09,13,04,23,9.70
2014,09,13,04,24,9.70
2014,09,13,04,25,9.80
2014,09,13,04,26,9.80
2014,09,13,04,27,9.80
2014,09,13,04,28,9.80
2014,09,13,04,29,9.80
2014,09,13,04,30,9.80
2014,09,13,04,31,9.90
2014,09,13,04,32,9.90
2014,09,13,04,33,9.90
2014,09,13,04,34,9.90
2014,09,13,04,35,9.90
2014,09,13,04,36,9.90
2014,09,13,04,37,9.90
2014,09,13,04,38,9.90
2014,09,13,04,39,10.00
2014,09,13,04,40,10.10
2014,09,13,04,41,10.10
2014,09,13,04,42,10.10
2014,09,13,04,43,10.20
2014,09,13,04,44,10.20
2014,09,13,04,45,10.20
2014,09,13,04,46,10.20
2014,09,13,04,47,10.30
2014,09,13,04,48,10.30
2014,09,13,04,49,10.30
2014,09,13,04,50,10.30
2014,09,13,04,51,10.30
2014,09,13,04,52,10.40
2014,09,13,04,53,10.40
2014,09,13,04,54,10.40
2014,09,13,04,55,10.50
2014,09,13,04,56,10.50
2014,09,13,04,57,10.50
2014,09,13,04,58,10.60
2014,09,13,04,59,10.60
2014,09,13,05,00,10.60
2014,09,13,05,01,10.70
2014,09,13,05,02,10.70
2014,09,13,05,03,10.80
2014,09,13,05,04,10.80
2014,09,13,05,05,10.90
2014,09,13,05,06,10.90
2014,09,13,05,07,10.90
2014,09,13,05,08,10.90
2014,09,13,05,09,11.00
2014,09,13,05,10,11.00
2014,09,13,05,11,11.10
2014,09,13,05,12,11.10
2014,09,13,05,13,11.10
2014,09,13,05,14,11.20
2014,09,13,05,15,11.20
2014,09,13,05,16,11.30
2014,09,13,05,17,11.30
2014,09,13,05,18,11.30
2014,09,13,05,19,11.30
2014,09,13,05,20,11.30
2014,09,13,05,21,11.30
2014,09,13,05,22,11.30
2014,09,13,05,23,11.30
2014,09,13,05,24,11.40
2014,09,13,05,25,11.40
2014,09,13,05,26,11.40
2014,09,13,05,27,11.40
2014,09,13,05,28,11.40
2014,09,13,05,29,11.50
2014,09,13,05,30,11.50
2014,09,13,05,31,11.50
2014,09,13,05,32,11.50
2014,09,13,05,33,11.50
2014,09,13,05,34,11.50
2014,09,13,05,35,11.50
2014,09,13,05,36,11.50
2014,09,13,05,37,11.60
2014,09,13,05,38,11.60
2014,09,13,05,39,11.70
2014,09,13,05,40,11.70
2014,09,13,05,41,11.70
2014,09,13,05,42,11.70
2014,09,13,05,43,11.70
2014,09,13,05,44,11.70
2014,09,13,05,45,11.70
2014,09,13,05,46,11.70
2014,09,13,05,47,11.70
2014,09,13,05,48,11.70
2014,09,13,05,49,11.60
2014,09,13,05,50,11.60
2014,09,13,05,51,11.60
2014,09,13,05,52,11.60
2014,09,13,05,53,11.50
2014,09,13,05,54,11.50
2014,09,13,05,55,11.40
2014,09,13,05,56,11.40
2014,09,13,05,57,11.40
2014,09,13,05,58,11.40
2014,09,13,05,59,11.40
2014,09,13,06,00,11.30
2014,09,13,06,01,11.30
2014,09,13,06,02,11.30
2014,09,13,06,03,11.30
2014,09,13,06,04,11.30
2014,09,13,06,05,11.20
2014,09,13,06,06,11.20
2014,09,13,06,07,11.20
2014,09,13,06,08,11.20
2014,09,13,06,09,11.20
2014,09,13,06,10,11.10
2014,09,13,06,11,11.10
2014,09,13,06,12,11.10
2014,09,13,06,13,11.10
2014,09,13,06,14,11.10
2014,09,13,06,15,11.00
2014,09,13,06,16,11.00
2014,09,13,06,17,10.90
2014,09,13,06,18,10.90
2014,09,13,06,19,10.90
2014,09,13,06,20,10.90
2014,09,13,06,21,10.90
2014,09,13,06,22,10.80
2014,09,13,06,23,10.80
2014,09,13,06,24,10.80
2014,09,13,06,25,10.80
2014,09,13,06,26,10.80
2014,09,13,06,27,10.80
2014,09,13,06,28,10.70
2014,09,13,06,29,10.70
2014,09,13,06,30,10.70
2014,09,13,06,31,10.70
2014,09,13,06,32,10.70
2014,09,13,06,33,10.70
2014,09,13,06,34,10.60
2014,09,13,06,35,10.60
2014,09,13,06,36,10.60
2014,09,13,06,37,10.60
2014,09,13,06,38,10.50
2014,09,13,06,39,10.50
2014,09,13,06,40,10.50
2014,09,13,06,41,10.50
2014,09,13,06,42,10.40
2014,09,13,06,43,10.40
2014,09,13,06,44,10.40
2014,09,13,06,45,10.40
2014,09,13,06,46,10.40
2014,09,13,06,47,10.30
2014,09,13,06,48,10.30
2014,09,13,06,49,10.30
2014,09,13,06,50,10.30
2014,09,13,06,51,10.30
2014,09,13,06,52,10.30
2014,09,13,06,53,10.30
2014,09,13,06,54,10.30
2014,09,13,06,55,10.30
2014,09,13,06,56,10.30
2014,09,13,06,57,10.30
2014,09,13,06,58,10.30
2014,09,13,06,59,10.30
2014,09,13,07,00,10.30
2014,09,13,07,01,10.30
2014,09,13,07,02,10.20
2014,09,13,07,03,10.20
2014,09,13,07,04,10.20
2014,09,13,07,05,10.20
2014,09,13,07,06,10.20
2014,09,13,07,07,10.20
2014,09,13,07,08,10.20
2014,09,13,07,09,10.20
2014,09,13,07,10,10.20
2014,09,13,07,11,10.20
2014,09,13,07,12,10.20
2014,09,13,07,13,10.20
2014,09,13,07,14,10.20
2014,09,13,07,15,10.20
2014,09,13,07,16,10.20
2014,09,13,07,17,10.20
2014,09,13,07,18,10.20
2014,09,13,07,19,10.20
2014,09,13,07,20,10.20
2014,09,13,07,21,10.20
2014,09,13,07,22,10.20
2014,09,13,07,23,10.20
2014,09,13,07,24,10.20
2014,09,13,07,25,10.20
2014,09,13,07,26,10.20
2014,09,13,07,27,10.20
2014,09,13,07,28,10.20
2014,09,13,07,29,10.20
2014,09,13,07,30,10.20
2014,09,13,07,31,10.20
2014,09,13,07,32,10.20
2014,09,13,07,33,10.30
2014,09,13,07,34,10.30
2014,09,13,07,35,10.30
2014,09,13,07,36,10.30
2014,09,13,07,37,10.30
2014,09,13,07,38,10.30
2014,09,13,07,39,10.30
2014,09,13,07,40,10.30
2014,09,13,07,41,10.40
2014,09,13,07,42,10.40
2014,09,13,07,43,10.40
2014,09,13,07,44,10.40
2014,09,13,07,45,10.40
2014,09,13,07,46,10.50
2014,09,13,07,47,10.50
2014,09,13,07,48,10.60
2014,09,13,07,49,10.60
2014,09,13,07,50,10.60
2014,09,13,07,51,10.60
2014,09,13,07,52,10.70
2014,09,13,07,53,10.70
2014,09,13,07,54,10.80
2014,09,13,07,55,10.80
2014,09,13,07,56,10.80
2014,09,13,07,57,10.90
2014,09,13,07,58,10.90
2014,09,13,07,59,10.90
2014,09,13,08,00,11.00
2014,09,13,08,01,11.00
2014,09,13,08,02,11.10
2014,09,13,08,03,11.10
2014,09,13,08,04,11.10
2014,09,13,08,05,11.20
2014,09,13,08,06,11.20
2014,09,13,08,07,11.20
2014,09,13,08,08,11.30
2014,09,13,08,09,11.30
2014,09,13,08,10,11.40
2014,09,13,08,11,11.40
2014,09,13,08,12,11.50
2014,09,13,08,13,11.60
2014,09,13,08,14,11.60
2014,09,13,08,15,11.70
2014,09,13,08,16,11.70
2014,09,13,08,17,11.70
2014,09,13,08,18,11.80
2014,09,13,08,19,11.80
2014,09,13,08,20,11.90
2014,09,13,08,21,11.90
2014,09,13,08,22,12.00
2014,09,13,08,23,12.00
2014,09,13,08,24,12.10
2014,09,13,08,25,12.20
2014,09,13,08,26,12.20
2014,09,13,08,27,12.30
2014,09,13,08,28,12.40
2014,09,13,08,29,12.50
2014,09,13,08,30,12.50
2014,09,13,08,31,12.60
2014,09,13,08,32,12.70
2014,09,13,08,33,12.80
2014,09,13,08,34,12.90
2014,09,13,08,35,12.90
2014,09,13,08,36,13.10
2014,09,13,08,37,13.20
2014,09,13,08,38,13.30
2014,09,13,08,39,13.40
2014,09,13,08,40,13.50
2014,09,13,08,41,13.60
2014,09,13,08,42,13.80
2014,09,13,08,43,13.90
2014,09,13,08,44,14.00
2014,09,13,08,45,14.10
2014,09,13,08,46,14.20
2014,09,13,08,47,14.30
2014,09,13,08,48,14.30
2014,09,13,08,49,14.40
2014,09,13,08,50,14.40
2014,09,13,08,51,14.50
2014,09,13,08,52,14.60
2014,09,13,08,53,14.60
2014,09,13,08,54,14.70
2014,09,13,08,55,14.70
2014,09,13,08,56,14.80
2014,09,13,08,57,14.90
2014,09,13,08,58,15.00
2014,09,13,08,59,15.00
2014,09,13,09,00,15.10
2014,09,13,09,01,15.20
2014,09,13,09,02,15.20
2014,09,13,09,03,15.20
2014,09,13,09,04,15.30
2014,09,13,09,05,15.30
2014,09,13,09,06,15.30
2014,09,13,09,07,15.30
2014,09,13,09,08,15.30
2014,09,13,09,09,15.30
2014,09,13,09,10,15.30
2014,09,13,09,11,15.30
2014,09,13,09,12,15.40
2014,09,13,09,13,15.40
2014,09,13,09,14,15.40
2014,09,13,09,15,15.50
2014,09,13,09,16,15.60
2014,09,13,09,17,15.60
2014,09,13,09,18,15.70
2014,09,13,09,19,15.70
2014,09,13,09,20,15.70
2014,09,13,09,21,15.80
2014,09,13,09,22,15.90
2014,09,13,09,23,16.00
2014,09,13,09,24,16.00
2014,09,13,09,25,16.10
2014,09,13,09,26,16.20
2014,09,13,09,27,16.30
2014,09,13,09,28,16.50
2014,09,13,09,29,16.60
2014,09,13,09,30,16.70
2014,09,13,09,31,16.90
2014,09,13,09,32,17.00
2014,09,13,09,33,17.10
2014,09,13,09,34,17.20
2014,09,13,09,35,17.20
2014,09,13,09,36,17.30
2014,09,13,09,37,17.40
2014,09,13,09,38,17.50
2014,09,13,09,39,17.70
2014,09,13,09,40,17.90
2014,09,13,09,41,18.00
2014,09,13,09,42,18.20
2014,09,13,09,43,18.30
2014,09,13,09,44,18.40
2014,09,13,09,45,18.50
2014,09,13,09,46,18.60
2014,09,13,09,47,18.70
2014,09,13,09,48,18.80
2014,09,13,09,49,19.00
2014,09,13,09,50,19.20
2014,09,13,09,51,19.30
2014,09,13,09,52,19.40
2014,09,13,09,53,19.60
2014,09,13,09,54,19.70
2014,09,13,09,55,19.80
2014,09,13,09,56,19.90
2014,09,13,09,57,20.00
2014,09,13,09,58,20.10
2014,09,13,09,59,20.20
2014,09,13,10,00,20.30
2014,09,13,10,01,20.30
2014,09,13,10,02,20.40
2014,09,13,10,03,20.50
2014,09,13,10,04,20.60
2014,09,13,10,05,20.60
2014,09,13,10,06,20.70
2014,09,13,10,07,20.80
2014,09,13,10,08,20.90
2014,09,13,10,09,20.90
2014,09,13,10,10,20.90
2014,09,13,10,11,21.00
2014,09,13,10,12,21.00
2014,09,13,10,13,21.10
2014,09,13,10,14,21.10
2014,09,13,10,15,21.20
2014,09,13,10,16,21.20
2014,09,13,10,17,21.20
2014,09,13,10,18,21.20
2014,09,13,10,19,21.20
2014,09,13,10,20,21.20
2014,09,13,10,21,21.30
2014,09,13,10,22,21.30
2014,09,13,10,23,21.30
2014,09,13,10,24,21.30
2014,09,13,10,25,21.40
2014,09,13,10,26,21.40
2014,09,13,10,27,21.40
2014,09,13,10,28,21.30
2014,09,13,10,29,21.30
2014,09,13,10,30,21.30
2014,09,13,10,31,21.30
2014,09,13,10,32,21.30
2014,09,13,10,33,21.30
2014,09,13,10,34,21.30
2014,09,13,10,35,21.30
2014,09,13,10,36,21.30
2014,09,13,10,37,21.30
2014,09,13,10,38,21.20
2014,09,13,10,39,21.20
2014,09,13,10,40,21.10
2014,09,13,10,41,21.00
2014,09,13,10,42,20.90
2014,09,13,10,43,20.80
2014,09,13,10,44,20.70
2014,09,13,10,45,20.70
2014,09,13,10,46,20.70
2014,09,13,10,47,20.70
2014,09,13,10,48,20.70
2014,09,13,10,49,20.70
2014,09,13,10,50,20.80
2014,09,13,10,51,20.90
2014,09,13,10,52,21.00
2014,09,13,10,53,21.00
2014,09,13,10,54,21.10
2014,09,13,10,55,21.20
2014,09,13,10,56,21.20
2014,09,13,10,57,21.30
2014,09,13,10,58,21.40
2014,09,13,10,59,21.40
2014,09,13,11,00,21.50
2014,09,13,11,01,21.60
2014,09,13,11,02,21.70
2014,09,13,11,03,21.70
2014,09,13,11,04,21.60
2014,09,13,11,05,21.50
2014,09,13,11,06,21.50
2014,09,13,11,07,21.40
2014,09,13,11,08,21.40
2014,09,13,11,09,21.40
2014,09,13,11,10,21.30
2014,09,13,11,11,21.40
2014,09,13,11,12,21.40
2014,09,13,11,13,21.40
2014,09,13,11,14,21.40
2014,09,13,11,15,21.40
2014,09,13,11,16,21.30
2014,09,13,11,17,21.40
2014,09,13,11,18,21.40
2014,09,13,11,19,21.50
2014,09,13,11,20,21.50
2014,09,13,11,21,21.50
2014,09,13,11,22,21.60
2014,09,13,11,23,21.60
2014,09,13,11,24,21.70
2014,09,13,11,25,21.80
2014,09,13,11,26,21.80
2014,09,13,11,27,21.90
2014,09,13,11,28,22.00
2014,09,13,11,29,22.10
2014,09,13,11,30,22.10
2014,09,13,11,31,22.20
2014,09,13,11,32,22.30
2014,09,13,11,33,22.40
2014,09,13,11,34,22.50
2014,09,13,11,35,22.50
2014,09,13,11,36,22.60
2014,09,13,11,37,22.60
2014,09,13,11,38,22.60
2014,09,13,11,39,22.60
2014,09,13,11,40,22.70
2014,09,13,11,41,22.70
2014,09,13,11,42,22.70
2014,09,13,11,43,22.70
2014,09,13,11,44,22.70
2014,09,13,11,45,22.70
2014,09,13,11,46,22.70
2014,09,13,11,47,22.70
2014,09,13,11,48,22.80
2014,09,13,11,49,22.80
2014,09,13,11,50,22.80
2014,09,13,11,51,22.90
2014,09,13,11,52,22.90
2014,09,13,11,53,22.90
2014,09,13,11,54,22.90
2014,09,13,11,55,22.80
2014,09,13,11,56,22.80
2014,09,13,11,57,22.80
2014,09,13,11,58,22.80
2014,09,13,11,59,22.80
2014,09,13,12,00,22.90
2014,09,13,12,01,22.90
2014,09,13,12,02,22.90
2014,09,13,12,03,23.00
2014,09,13,12,04,23.00
2014,09,13,12,05,23.10
2014,09,13,12,06,23.10
2014,09,13,12,07,23.10
2014,09,13,12,08,23.20
2014,09,13,12,09,23.20
2014,09,13,12,10,23.20
2014,09,13,12,11,23.20
2014,09,13,12,12,23.20
2014,09,13,12,13,23.20
2014,09,13,12,14,23.20
2014,09,13,12,15,23.20
2014,09,13,12,16,23.20
2014,09,13,12,17,23.20
2014,09,13,12,18,23.20
2014,09,13,12,19,23.20
2014,09,13,12,20,23.10
2014,09,13,12,21,23.00
2014,09,13,12,22,22.80
2014,09,13,12,23,22.70
2014,09,13,12,24,22.60
2014,09,13,12,25,22.50
2014,09,13,12,26,22.50
2014,09,13,12,27,22.60
2014,09,13,12,28,22.60
2014,09,13,12,29,22.70
2014,09,13,12,30,22.70
2014,09,13,12,31,22.80
2014,09,13,12,32,22.70
2014,09,13,12,33,22.70
2014,09,13,12,34,22.80
2014,09,13,12,35,22.80
2014,09,13,12,36,22.90
2014,09,13,12,37,22.90
2014,09,13,12,38,23.00
2014,09,13,12,39,23.10
2014,09,13,12,40,23.20
2014,09,13,12,41,23.20
2014,09,13,12,42,23.20
2014,09,13,12,43,23.20
2014,09,13,12,44,23.20
2014,09,13,12,45,23.30
2014,09,13,12,46,23.30
2014,09,13,12,47,23.30
2014,09,13,12,48,23.30
2014,09,13,12,49,23.40
2014,09,13,12,50,23.50
2014,09,13,12,51,23.60
2014,09,13,12,52,23.60
2014,09,13,12,53,23.70
2014,09,13,12,54,23.70
2014,09,13,12,55,23.80
2014,09,13,12,56,23.80
2014,09,13,12,57,23.80
2014,09,13,12,58,23.90
2014,09,13,12,59,24.00
2014,09,13,13,00,24.10
2014,09,13,13,01,24.10
2014,09,13,13,02,24.20
2014,09,13,13,03,24.20
2014,09,13,13,04,24.20
2014,09,13,13,05,24.20
2014,09,13,13,06,24.20
2014,09,13,13,07,24.20
2014,09,13,13,08,24.20
2014,09,13,13,09,24.20
2014,09,13,13,10,24.30
2014,09,13,13,11,24.30
2014,09,13,13,12,24.30
2014,09,13,13,13,24.20
2014,09,13,13,14,24.20
2014,09,13,13,15,24.10
2014,09,13,13,16,24.10
2014,09,13,13,17,24.00
2014,09,13,13,18,24.00
2014,09,13,13,19,23.90
2014,09,13,13,20,23.80
2014,09,13,13,21,23.70
2014,09,13,13,22,23.60
2014,09,13,13,23,23.50
2014,09,13,13,24,23.40
2014,09,13,13,25,23.30
2014,09,13,13,26,23.30
2014,09,13,13,27,23.40
2014,09,13,13,28,23.30
2014,09,13,13,29,23.20
2014,09,13,13,30,23.20
2014,09,13,13,31,23.30
2014,09,13,13,32,23.30
2014,09,13,13,33,23.40
2014,09,13,13,34,23.60
2014,09,13,13,35,23.70
2014,09,13,13,36,23.80
2014,09,13,13,37,23.90
2014,09,13,13,38,24.00
2014,09,13,13,39,24.10
2014,09,13,13,40,24.20
2014,09,13,13,41,24.20
2014,09,13,13,42,24.20
2014,09,13,13,43,24.10
2014,09,13,13,44,24.10
2014,09,13,13,45,24.00
2014,09,13,13,46,23.80
2014,09,13,13,47,23.70
2014,09,13,13,48,23.50
2014,09,13,13,49,23.40
2014,09,13,13,50,23.30
2014,09,13,13,51,23.30
2014,09,13,13,52,23.30
2014,09,13,13,53,23.30
2014,09,13,13,54,23.40
2014,09,13,13,55,23.40
2014,09,13,13,56,23.60
2014,09,13,13,57,23.70
2014,09,13,13,58,23.80
2014,09,13,13,59,23.90
2014,09,13,14,00,24.00
2014,09,13,14,01,24.10
2014,09,13,14,02,24.10
2014,09,13,14,03,24.10
2014,09,13,14,04,24.10
2014,09,13,14,05,24.10
2014,09,13,14,06,24.20
2014,09,13,14,07,24.20
2014,09,13,14,08,24.30
2014,09,13,14,09,24.30
2014,09,13,14,10,24.40
2014,09,13,14,11,24.40
2014,09,13,14,12,24.40
2014,09,13,14,13,24.50
2014,09,13,14,14,24.50
2014,09,13,14,15,24.50
2014,09,13,14,16,24.50
2014,09,13,14,17,24.50
2014,09,13,14,18,24.50
2014,09,13,14,19,24.60
2014,09,13,14,20,24.60
2014,09,13,14,21,24.70
2014,09,13,14,22,24.70
2014,09,13,14,23,24.70
2014,09,13,14,24,24.70
2014,09,13,14,25,24.80
2014,09,13,14,26,24.80
2014,09,13,14,27,24.80
2014,09,13,14,28,24.80
2014,09,13,14,29,24.80
2014,09,13,14,30,24.70
2014,09,13,14,31,24.70
2014,09,13,14,32,24.70
2014,09,13,14,33,24.80
2014,09,13,14,34,24.80
2014,09,13,14,35,24.80
2014,09,13,14,36,24.80
2014,09,13,14,37,24.80
2014,09,13,14,38,24.80
2014,09,13,14,39,24.80
2014,09,13,14,40,24.80
2014,09,13,14,41,24.80
2014,09,13,14,42,24.80
2014,09,13,14,43,24.90
2014,09,13,14,44,24.80
2014,09,13,14,45,24.80
2014,09,13,14,46,24.80
2014,09,13,14,47,24.80
2014,09,13,14,48,24.80
2014,09,13,14,49,24.70
2014,09,13,14,50,24.70
2014,09,13,14,51,24.70
2014,09,13,14,52,24.60
2014,09,13,14,53,24.60
2014,09,13,14,54,24.50
2014,09,13,14,55,24.50
2014,09,13,14,56,24.50
2014,09,13,14,57,24.50
2014,09,13,14,58,24.60
2014,09,13,14,59,24.60
2014,09,13,15,00,24.60
2014,09,13,15,01,24.60
2014,09,13,15,02,24.70
2014,09,13,15,03,24.80
2014,09,13,15,04,24.90
2014,09,13,15,05,24.90
2014,09,13,15,06,24.90
2014,09,13,15,07,24.90
2014,09,13,15,08,25.00
2014,09,13,15,09,25.10
2014,09,13,15,10,25.10
2014,09,13,15,11,25.20
2014,09,13,15,12,25.30
2014,09,13,15,13,25.30
2014,09,13,15,14,25.40
2014,09,13,15,15,25.40
2014,09,13,15,16,25.40
2014,09,13,15,17,25.40
2014,09,13,15,18,25.40
2014,09,13,15,19,25.40
2014,09,13,15,20,25.40
2014,09,13,15,21,25.40
2014,09,13,15,22,25.40
2014,09,13,15,23,25.30
2014,09,13,15,24,25.30
2014,09,13,15,25,25.30
2014,09,13,15,26,25.30
2014,09,13,15,27,25.30
2014,09,13,15,28,25.30
2014,09,13,15,29,25.40
2014,09,13,15,30,25.40
2014,09,13,15,31,25.40
2014,09,13,15,32,25.40
2014,09,13,15,33,25.40
2014,09,13,15,34,25.40
2014,09,13,15,35,25.40
2014,09,13,15,36,25.40
2014,09,13,15,37,25.40
2014,09,13,15,38,25.40
2014,09,13,15,39,25.40
2014,09,13,15,40,25.40
2014,09,13,15,41,25.50
2014,09,13,15,42,25.60
2014,09,13,15,43,25.70
2014,09,13,15,44,25.60
2014,09,13,15,45,25.50
2014,09,13,15,46,25.40
2014,09,13,15,47,25.40
2014,09,13,15,48,25.30
2014,09,13,15,49,25.20
2014,09,13,15,50,25.10
2014,09,13,15,51,25.10
2014,09,13,15,52,25.00
2014,09,13,15,53,24.90
2014,09,13,15,54,24.80
2014,09,13,15,55,24.80
2014,09,13,15,56,24.70
2014,09,13,15,57,24.60
2014,09,13,15,58,24.60
2014,09,13,15,59,24.50
2014,09,13,16,00,24.50
2014,09,13,16,01,24.50
2014,09,13,16,02,24.40
2014,09,13,16,03,24.40
2014,09,13,16,04,24.40
2014,09,13,16,05,24.40
2014,09,13,16,06,24.40
2014,09,13,16,07,24.40
2014,09,13,16,08,24.40
2014,09,13,16,09,24.40
2014,09,13,16,10,24.40
2014,09,13,16,11,24.40
2014,09,13,16,12,24.40
2014,09,13,16,13,24.40
2014,09,13,16,14,24.40
2014,09,13,16,15,24.30
2014,09,13,16,16,24.40
2014,09,13,16,17,24.40
2014,09,13,16,18,24.40
2014,09,13,16,19,24.40
2014,09,13,16,20,24.40
2014,09,13,16,21,24.40
2014,09,13,16,22,24.40
2014,09,13,16,23,24.40
2014,09,13,16,24,24.40
2014,09,13,16,25,24.50
2014,09,13,16,26,24.50
2014,09,13,16,27,24.50
2014,09,13,16,28,24.60
2014,09,13,16,29,24.60
2014,09,13,16,30,24.60
2014,09,13,16,31,24.60
2014,09,13,16,32,24.60
2014,09,13,16,33,24.60
2014,09,13,16,34,24.60
2014,09,13,16,35,24.60
2014,09,13,16,36,24.60
2014,09,13,16,37,24.60
2014,09,13,16,38,24.60
2014,09,13,16,39,24.50
2014,09,13,16,40,24.40
2014,09,13,16,41,24.40
2014,09,13,16,42,24.30
2014,09,13,16,43,24.30
2014,09,13,16,44,24.30
2014,09,13,16,45,24.30
2014,09,13,16,46,24.30
2014,09,13,16,47,24.30
2014,09,13,16,48,24.30
2014,09,13,16,49,24.20
2014,09,13,16,50,24.10
2014,09,13,16,51,24.00
2014,09,13,16,52,23.90
2014,09,13,16,53,23.80
2014,09,13,16,54,23.80
2014,09,13,16,55,23.80
2014,09,13,16,56,23.80
2014,09,13,16,57,23.80
2014,09,13,16,58,23.80
2014,09,13,16,59,23.80
2014,09,13,17,00,23.80
2014,09,13,17,01,23.80
2014,09,13,17,02,23.80
2014,09,13,17,03,23.80
2014,09,13,17,04,23.80
2014,09,13,17,05,23.80
2014,09,13,17,06,23.80
2014,09,13,17,07,23.80
2014,09,13,17,08,23.80
2014,09,13,17,09,23.80
2014,09,13,17,10,23.80
2014,09,13,17,11,23.80
2014,09,13,17,12,23.80
2014,09,13,17,13,23.80
2014,09,13,17,14,23.80
2014,09,13,17,15,23.80
2014,09,13,17,16,23.80
2014,09,13,17,17,23.80
2014,09,13,17,18,23.80
2014,09,13,17,19,23.80
2014,09,13,17,20,23.80
2014,09,13,17,21,23.70
2014,09,13,17,22,23.70
2014,09,13,17,23,23.70
2014,09,13,17,24,23.70